カタログに戻る

USA 148

運用中軍事GEO
NORAD 26052·PAYLOAD·🇺🇸 United States

打ち上げ Jan 21, 2000 から Cape Canaveral Space Force Station

Loading…

TLE

最新Source: Space-Track

元期: Sep 14, 2026, 05:03 UTC

1 26052U 00001A   26257.21077068 -.00000257  00000-0  00000-0 0  9994
2 26052  12.0511  31.7512 0004024  36.0499 321.1973  0.99113341 33796

AllMySatでUSA 148をリアルタイム追跡

Download on the App Store